Stations météo

réclame
Mon MeteoGroup
Dörnick, Allemagne (10150): Température de l'air & dewpoint: 17.10.2018 08:00:00 - 23.10.2018 08:00:00 (CEST)Dörnick, Allemagne (10150): Température de l'air 5cm & Température de l'air -5cm: 17.10.2018 08:00:00 - 23.10.2018 08:00:00 (CEST)Dörnick, Allemagne (10150): Température de l'air -20cm & Température de l'air -100cm: 17.10.2018 08:00:00 - 23.10.2018 08:00:00 (CEST)Dörnick, Allemagne (10150): Vitesse du vent & gusts: 17.10.2018 08:00:00 - 23.10.2018 08:00:00 (CEST)Dörnick, Allemagne (10150): Direction du vent: 17.10.2018 08:00:00 - 23.10.2018 08:00:00 (CEST)Dörnick, Allemagne (10150): reduced air pressure: 17.10.2018 08:00:00 - 23.10.2018 08:00:00 (CEST)Dörnick, Allemagne (10150): visibility: 17.10.2018 08:00:00 - 23.10.2018 08:00:00 (CEST)Dörnick, Allemagne (10150): Ensoleillement: 17.10.2018 08:00:00 - 23.10.2018 08:00:00 (CEST)Dörnick, Allemagne (10150): Quantités de précipitations: 17.10.2018 08:00:00 - 23.10.2018 08:00:00 (CEST)
Date & Time tt [°C] td [°C] tt 5cm [°C] tt -5cm [°C] tt -20cm [°C] tt -100cm [°C] ff [km/h] ff [knt] fx [km/h] fx [knt] dd ppp [hPa] vv [km] sd [min] rr [mm]
23.10.2018 08:00:00 10,7 9,1 9,6 9,6 9,9 13,2 30 16 53 29 W 1012,8 8 0 1,7
23.10.2018 07:00:00 9,9 8,3 9,0 9,1 9,9 13,2 25 14 50 27 WSW 1013,9 15 0 0,0
23.10.2018 06:00:00 9,5 7,6 8,7 8,8 9,8 13,2 32 18 63 34 WSW 1015,1 11 0 0,0
23.10.2018 05:00:00 9,3 7,1 8,3 8,6 9,8 13,2 33 18 53 28 SW 1016,9 17 0 0,0
23.10.2018 04:00:00 9,2 7,1 8,2 8,4 9,7 13,2 29 16 46 25 SW 1018,9 23 0 0,0
23.10.2018 03:00:00 9,5 5,8 8,9 8,5 9,7 13,2 22 12 35 19 WSW 1021,0 36 0 0,0
23.10.2018 02:00:00 8,6 5,2 7,8 7,4 9,8 13,2 20 11 32 17 SW 1022,5 43 0 0,0
23.10.2018 01:00:00 8,3 4,9 6,7 6,6 10,0 13,2 16 8 25 14 WSW 1024,4 44 0 0,0
23.10.2018 00:00:00 8,0 4,4 6,6 7,0 10,2 13,2 12 6 18 10 SW 1025,8 41 0 0,0
22.10.2018 23:00:00 7,6 4,4 6,9 7,1 10,5 13,2 11 6 18 10 SW 1027,1 35 0 0,0
22.10.2018 22:00:00 7,4 4,3 5,4 6,5 10,8 13,2 13 7 20 11 WSW 1027,5 43 0 0,0
22.10.2018 21:00:00 8,3 3,9 7,0 7,5 11,1 13,2 14 8 24 13 WSW 1028,1 39 0 0,0
22.10.2018 20:00:00 8,1 3,5 6,1 6,9 11,6 13,2 14 7 21 11 WSW 1028,5 39 0 0,0
22.10.2018 19:00:00 8,6 3,1 5,8 7,5 12,0 13,2 10 6 23 12 W 1028,9 44 0 0,0
22.10.2018 18:00:00 10,0 3,5 8,1 9,3 12,3 13,2 16 9 24 13 W 1028,9 43 32 0,0
22.10.2018 17:00:00 11,1 4,4 10,8 11,7 12,3 13,2 16 9 31 17 W 1028,9 28 32 0,0
22.10.2018 16:00:00 12,5 4,0 13,4 13,3 12,2 13,2 16 9 38 20 WNW 1029,5 23 47 0,0
22.10.2018 15:00:00 12,1 2,5 14,6 14,0 11,9 13,2 21 11 35 19 NW 1028,8 17 33 0,0
22.10.2018 14:00:00 12,1 3,6 13,1 13,1 11,8 13,2 19 10 40 22 NW 1029,2 34 28 0,0
22.10.2018 13:00:00 11,6 3,6 13,5 12,8 11,6 13,2 26 14 42 23 NNW 1029,1 30 42 0,0
22.10.2018 12:00:00 10,8 5,2 10,5 11,1 11,5 13,3 24 13 42 23 NW 1029,0 51 15 0,0
22.10.2018 11:00:00 11,9 6,7 14,5 14,3 11,3 13,3 15 8 26 14 NW 1028,4 20 60 0,0
22.10.2018 10:00:00 10,6 6,6 11,5 11,0 11,4 13,3 16 9 24 13 NW 1028,1 33 60 0,0
22.10.2018 09:00:00 9,8 7,7 8,2 8,6 11,7 13,3 11 6 21 12 NW 1027,1 45 5 0,0
22.10.2018 08:00:00 10,6 8,4 8,9 9,8 11,9 13,3 13 7 26 14 NW 1025,9 45 0 0,0
22.10.2018 07:00:00 11,1 9,1 10,4 10,7 12,0 13,3 14 8 31 17 NNW 1025,3 58 0 0,0
22.10.2018 06:00:00 11,6 11,2 11,3 11,5 12,0 13,3 10 5 18 10 NW 1024,4 2,0 0 0,2
22.10.2018 05:00:00 11,4 11,0 11,0 11,4 12,0 13,3 11 6 22 12 W 1023,8 1,4 0 0,3
22.10.2018 04:00:00 11,3 10,5 10,8 11,5 12,1 13,3 15 8 26 14 WSW 1023,7 1,7 0 0,1
22.10.2018 03:00:00 12,0 9,9 11,4 12,0 12,1 13,3 19 10 32 17 WSW 1023,9 3,9 0 0,0
22.10.2018 02:00:00 12,9 8,7 12,3 12,0 12,2 13,3 15 8 26 14 SW 1024,0 9 0 0,0
22.10.2018 01:00:00 12,6 9,1 11,9 11,6 12,2 13,3 13 7 24 13 SSW 1024,4 9 0 0,0
22.10.2018 00:00:00 13,0 9,3 12,5 12,1 12,3 13,3 18 10 30 16 SW 1024,6 11 0 0,0
21.10.2018 23:00:00 13,2 9,5 12,5 12,0 12,4 13,3 18 10 26 14 SW 1024,6 11 0 0,0
21.10.2018 22:00:00 13,0 9,5 11,9 11,5 12,5 13,3 13 7 19 11 SSW 1025,1 15 0 0,0
21.10.2018 21:00:00 12,2 9,7 11,2 11,1 12,8 13,4 11 6 20 11 SSW 1025,2 14 0 0,0
21.10.2018 20:00:00 13,3 9,8 12,0 12,6 12,9 13,4 13 7 20 11 SSW 1025,1 14 0 0,0
21.10.2018 19:00:00 13,9 10,1 13,3 13,3 13,0 13,4 11 6 18 10 SSW 1025,3 11 0 0,0
21.10.2018 18:00:00 14,3 10,0 13,8 14,0 13,0 13,4 13 7 25 14 SW 1025,3 8 0 0,0
21.10.2018 17:00:00 14,8 10,2 14,7 15,3 12,8 13,4 15 8 26 14 SW 1025,6 8 0 0,0
21.10.2018 16:00:00 15,4 10,0 16,1 16,7 12,4 13,4 16 9 27 15 SW 1025,9 10 0 0,0
21.10.2018 15:00:00 15,0 10,9 15,8 16,6 11,9 13,4 18 10 27 15 SW 1026,3 8 3 0,0
21.10.2018 14:00:00 14,4 11,3 15,8 16,0 11,4 13,4 16 9 26 14 SW 1026,8 6 0 0,0
21.10.2018 13:00:00 13,7 10,9 15,4 16,3 10,7 13,4 16 9 22 12 SW 1027,5 5 2 0,0
21.10.2018 12:00:00 12,2 11,1 13,6 13,6 10,3 13,4 9 5 13 7 SSW 1027,9 4,4 0 0,0
21.10.2018 11:00:00 10,6 10,2 11,1 11,2 9,9 13,4 6 3 12 7 S 1028,3 4,3 0 0,0
21.10.2018 10:00:00 9,7 9,6 10,0 10,1 9,7 13,5 4 2 9 5 ESE 1028,0 2,7 0 0,0
21.10.2018 09:00:00 8,6 8,6 8,7 9,0 9,6 13,5 6 3 9 5 S 1028,0 0,2 0 0,0
21.10.2018 08:00:00 8,6 8,6 8,3 8,4 9,5 13,5 5 3 10 5 SSW 1027,9 0,1 0 0,0
21.10.2018 07:00:00 8,2 8,2 6,6 7,4 9,5 13,5 4 2 7 4 S 1028,0 6 0 0,0
21.10.2018 06:00:00 6,9 6,9 5,4 6,6 9,7 13,5 4 2 5 3 SSE 1028,2 9 0 0,0
21.10.2018 05:00:00 6,8 6,4 3,0 6,3 9,8 13,5 1 1 7 4 SE 1028,1 4,9 0 0,0
21.10.2018 04:00:00 7,5 7,1 5,2 6,9 9,9 13,5 2 1 5 3 N 1028,3 9 0 0,0
21.10.2018 03:00:00 7,6 6,9 6,9 7,7 10,0 13,5 3 2 12 6 WSW 1028,4 12 0 0,0
21.10.2018 02:00:00 5,8 5,4 2,8 5,9 10,2 13,5 4 2 5 3 WNW 1029,0 9 0 0,0
21.10.2018 01:00:00 7,0 6,6 4,1 6,5 10,5 13,5 3 1 7 4 W 1028,9 14 0 0,0
21.10.2018 00:00:00 6,9 6,5 2,7 6,3 10,8 13,5 3 1 8 4 NNW 1029,1 17 0 0,0
20.10.2018 23:00:00 5,6 4,9 4,5 7,0 11,2 13,5 5 3 7 4 WSW 1029,0 21 0 0,0
20.10.2018 22:00:00 6,4 5,5 2,6 6,9 11,6 13,6 4 2 8 4 W 1028,9 22 0 0,0
20.10.2018 21:00:00 7,5 5,8 2,4 7,1 12,0 13,6 6 3 9 5 WNW 1028,9 29 0 0,0
20.10.2018 20:00:00 9,3 6,1 4,5 8,1 12,5 13,6 6 4 11 6 WNW 1028,7 39 0 0,0
20.10.2018 19:00:00 10,0 6,2 5,1 9,2 12,9 13,6 7 4 13 7 W 1028,3 40 0 0,0
20.10.2018 18:00:00 12,7 6,5 10,7 11,8 13,1 13,6 9 5 32 17 WNW 1027,8 44 33 0,0
20.10.2018 17:00:00 14,4 7,0 14,3 14,4 13,1 13,6 17 9 31 17 WNW 1027,8 23 58 0,0
20.10.2018 16:00:00 15,0 7,7 16,2 15,5 12,8 13,6 18 10 36 19 W 1027,5 25 33 0,0
20.10.2018 15:00:00 14,7 8,7 15,8 17,3 12,3 13,6 19 11 28 15 W 1027,5 26 42 0,0
20.10.2018 14:00:00 14,5 8,8 18,3 18,9 11,6 13,6 16 9 31 17 WSW 1027,5 17 54 0,0
20.10.2018 13:00:00 13,4 8,2 15,1 16,5 11,1 13,7 19 10 28 15 W 1027,9 18 33 0,0
20.10.2018 12:00:00 13,0 7,7 15,2 16,2 10,6 13,7 17 9 27 15 WSW 1027,9 12 57 0,0
20.10.2018 11:00:00 10,6 6,1 10,9 11,9 10,4 13,7 20 11 29 16 WSW 1027,8 20 4 0,0
20.10.2018 10:00:00 9,8 5,7 9,8 9,9 10,2 13,7 14 8 22 12 WSW 1027,5 21 0 0,0
20.10.2018 09:00:00 9,1 5,6 9,0 9,3 10,2 13,7 8 4 21 11 SW 1027,4 20 0 0,0
20.10.2018 08:00:00 9,1 5,0 8,6 8,6 10,2 13,7 16 9 29 16 WSW 1027,3 20 0 0,0
20.10.2018 07:00:00 8,9 4,5 8,3 8,3 10,3 13,7 14 8 29 16 WSW 1026,8 22 0 0,0
20.10.2018 06:00:00 8,4 3,9 7,7 7,5 10,5 13,7 14 7 22 12 WSW 1026,8 21 0 0,0
20.10.2018 05:00:00 7,8 3,9 6,2 7,3 10,7 13,7 14 8 18 10 SSW 1026,1 25 0 0,0
20.10.2018 04:00:00 9,0 4,0 7,8 8,2 10,8 13,7 8 4 11 6 SW 1026,6 38 0 0,0
20.10.2018 03:00:00 8,5 4,3 7,4 8,7 10,9 13,8 3 2 9 5 SW 1027,0 38 0 0,0
20.10.2018 02:00:00 9,2 4,7 7,5 9,0 11,0 13,8 2 1 7 4 SSE 1026,7 41 0 0,0
20.10.2018 01:00:00 8,8 5,2 7,7 9,1 11,1 13,8 3 2 8 4 W 1026,9 37 0 0,0
20.10.2018 00:00:00 9,4 4,7 8,5 9,2 11,3 13,8 6 3 9 5 W 1026,6 39 0 0,0
19.10.2018 23:00:00 9,1 5,7 7,8 9,2 11,4 13,8 6 3 9 5 WSW 1026,6 34 0 0,0
19.10.2018 22:00:00 9,0 5,8 8,5 9,4 11,5 13,8 5 3 9 5 S 1026,6 35 0 0,0
19.10.2018 21:00:00 9,0 6,2 7,2 9,3 11,7 13,8 2 1 6 4 WNW 1026,5 39 0 0,0
19.10.2018 20:00:00 8,3 5,8 7,6 9,4 12,0 13,8 4 2 5 3 W 1026,1 43 0 0,0
19.10.2018 19:00:00 8,2 5,5 6,5 9,2 12,3 13,9 2 1 5 3 SW 1025,9 42 0 0,0
19.10.2018 18:00:00 10,7 5,0 8,0 10,8 12,4 13,9 4 2 11 6 NNE 1025,6 45 0 0,0
19.10.2018 17:00:00 11,7 4,0 12,1 13,5 12,3 13,9 9 5 19 10 NNE 1025,5 55 33 0,0
19.10.2018 16:00:00 12,7 3,4 16,1 15,5 11,9 13,9 6 4 13 7 W 1025,7 35 59 0,0
19.10.2018 15:00:00 11,9 4,0 16,4 15,4 11,5 13,9 9 5 14 7 NW 1026,3 22 26 0,0
19.10.2018 14:00:00 12,0 3,6 14,7 14,5 11,0 13,9 7 4 18 10 W 1026,7 44 26 0,0
19.10.2018 13:00:00 11,7 3,6 15,9 15,7 10,3 13,9 6 4 16 8 WNW 1026,8 43 56 0,0
19.10.2018 12:00:00 11,0 5,0 15,4 15,7 9,8 13,9 8 5 13 7 NW 1027,0 32 60 0,0
19.10.2018 11:00:00 9,1 6,3 10,9 12,1 9,4 13,9 6 3 9 5 WNW 1027,0 25 31 0,0
19.10.2018 10:00:00 6,6 5,5 6,1 7,8 9,3 13,9 8 4 10 6 W 1026,9 14 0 0,0
19.10.2018 09:00:00 7,2 6,5 7,1 7,7 9,2 13,9 5 3 9 5 NNW 1026,8 16 0 0,0
19.10.2018 08:00:00 6,8 6,2 6,5 7,0 9,1 13,9 4 2 6 4 W 1026,4 11 0 0,0
19.10.2018 07:00:00 6,2 5,9 5,9 6,3 9,1 13,9 4 2 8 4 W 1026,2 10 0 0,0
19.10.2018 06:00:00 4,5 4,5 3,4 4,9 9,2 13,9 5 3 6 3 W 1026,3 6 0 0,0
19.10.2018 05:00:00 3,7 3,7 0,3 2,9 9,5 13,9 4 2 6 3 WNW 1026,3 4,2 0 0,0
19.10.2018 04:00:00 3,4 3,2 0,0 3,5 9,9 13,9 3 2 5 3 NW 1026,2 3,4 0 0,0
19.10.2018 03:00:00 3,7 3,3 0,4 4,0 10,3 13,9 3 2 6 4 W 1026,2 10 0 0,0
19.10.2018 02:00:00 4,6 3,9 1,4 4,7 10,7 13,9 3 2 8 5 WNW 1026,5 17 0 0,0
19.10.2018 01:00:00 7,7 6,0 3,8 5,9 11,0 13,9 6 3 9 5 NW 1026,4 31 0 0,0
19.10.2018 00:00:00 7,3 5,5 4,9 6,8 11,3 13,9 6 3 8 5 NW 1026,5 37 0 0,0
18.10.2018 23:00:00 6,0 4,8 4,5 6,6 11,7 13,9 3 2 6 3 NW 1026,4 39 0 0,0
18.10.2018 22:00:00 4,7 3,7 2,5 5,5 12,2 13,9 3 2 7 4 WNW 1026,1 35 0 0,0
18.10.2018 21:00:00 5,4 4,1 2,4 6,2 12,8 13,9 4 2 5 3 WNW 1025,8 46 0 0,0
18.10.2018 20:00:00 7,3 4,8 2,5 7,1 13,3 13,9 3 1 7 4 NW 1025,4 56 0 0,0
18.10.2018 19:00:00 10,4 6,1 5,6 8,8 13,8 13,9 6 3 14 8 N 1025,1 52 0 0,0
18.10.2018 18:00:00 12,1 6,5 11,5 11,4 14,1 13,9 10 5 27 15 N 1024,5 46 47 0,0
18.10.2018 17:00:00 13,1 7,2 12,9 12,8 14,3 13,9 19 10 30 16 NNW 1024,3 14 60 0,0
18.10.2018 16:00:00 13,9 7,4 17,1 15,1 14,2 13,9 16 9 29 16 N 1024,1 12 60 0,0
18.10.2018 15:00:00 13,9 7,3 16,7 16,1 14,0 13,9 19 10 32 17 N 1023,8 11 58 0,0
18.10.2018 14:00:00 13,5 8,6 15,4 16,5 13,9 13,9 14 8 27 14 N 1023,8 28 19 0,0
18.10.2018 13:00:00 12,4 10,1 12,2 13,5 13,8 13,9 14 8 32 17 N 1023,8 27 0 0,3
18.10.2018 12:00:00 13,0 12,4 13,2 14,2 13,8 13,9 13 7 29 15 N 1023,2 2,9 0 0,9
18.10.2018 11:00:00 13,1 12,5 13,2 14,1 13,7 13,9 6 4 11 6 WNW 1022,5 2,8 0 0,1
18.10.2018 10:00:00 13,0 11,6 14,0 14,3 13,6 13,9 8 4 11 6 NW 1022,2 6 17 0,0
18.10.2018 09:00:00 12,3 11,4 11,0 12,7 13,7 13,9 5 3 14 7 WNW 1021,7 5 0 0,0
18.10.2018 08:00:00 12,3 11,6 11,8 13,0 13,8 13,9 9 5 22 12 NW 1021,2 5 0 0,0
18.10.2018 07:00:00 12,4 12,1 12,2 13,1 13,8 13,9 15 8 23 12 NNW 1020,8 4,5 0 0,0
18.10.2018 06:00:00 12,4 12,4 12,3 13,1 13,8 13,9 7 4 10 5 WNW 1020,5 0,8 0 0,0
18.10.2018 05:00:00 12,1 12,1 12,0 13,0 13,9 13,9 6 3 14 8 WNW 1020,3 0,2 0 0,0
18.10.2018 04:00:00 12,4 12,4 12,2 12,9 14,0 13,9 6 4 14 8 WNW 1020,3 0,2 0 0,0
18.10.2018 03:00:00 12,2 12,2 11,5 11,7 14,3 13,9 7 4 9 5 WNW 1020,1 0,8 0 0,0
18.10.2018 02:00:00 13,0 12,6 9,3 12,4 14,5 13,9 4 2 12 6 WNW 1020,2 1,3 0 0,0
18.10.2018 01:00:00 13,6 13,4 13,4 14,0 14,6 13,9 8 4 16 9 NW 1020,3 1,7 0 0,0
18.10.2018 00:00:00 13,6 13,2 13,1 13,5 14,8 13,9 11 6 18 10 WNW 1020,2 1,1 0 0,0
17.10.2018 23:00:00 13,6 12,4 11,3 12,7 15,1 13,9 7 4 13 7 WNW 1020,0 2,4 0 0,0
17.10.2018 22:00:00 14,1 12,5 10,8 12,7 15,5 13,9 5 3 12 7 WNW 1020,0 3,5 0 0,0
17.10.2018 21:00:00 14,9 13,3 10,2 13,5 15,9 13,9 5 3 9 5 NW 1019,4 6 0 0,0
17.10.2018 20:00:00 14,0 11,9 10,8 14,3 16,3 13,9 3 2 14 8 W 1019,1 9 0 0,0
17.10.2018 19:00:00 15,4 13,0 11,7 15,4 16,7 13,9 0 0 2 1 N 1018,6 9 0 0,0
17.10.2018 18:00:00 18,9 13,7 16,1 17,9 16,8 13,9 0 0 3 2 N 1018,3 12 14 0,0
17.10.2018 17:00:00 20,8 13,5 20,1 19,7 16,6 13,9 3 2 7 4 E 1018,2 14 39 0,0
17.10.2018 16:00:00 21,9 13,7 23,8 21,7 16,1 13,9 5 3 9 5 E 1018,2 13 60 0,0
17.10.2018 15:00:00 22,2 12,9 23,6 23,2 15,4 13,9 7 4 12 6 SSE 1018,4 14 60 0,0
17.10.2018 14:00:00 21,5 13,3 24,3 22,9 14,7 13,9 8 4 16 9 SSE 1018,7 11 60 0,0
17.10.2018 13:00:00 20,5 13,7 22,8 21,0 13,9 13,9 7 4 12 6 S 1019,0 9 50 0,0
17.10.2018 12:00:00 19,0 13,9 21,6 20,1 13,2 13,9 6 3 10 5 S 1019,4 7 60 0,0
17.10.2018 11:00:00 16,5 13,4 19,6 18,2 12,6 13,9 4 2 10 5 S 1019,4 4,9 52 0,0
17.10.2018 10:00:00 14,0 13,7 14,2 13,7 12,4 13,9 4 2 6 4 ESE 1019,1 2,6 0 0,0
17.10.2018 09:00:00 11,8 11,8 11,3 11,6 12,4 13,9 4 2 4 2 ESE 1019,2 2,1 0 0,0
17.10.2018 08:00:00 9,2 9,1 8,0 9,8 12,5 13,9 0 0 5 3 N 1019,3 0,2 0 0,0

tt = Température de l'air
td = dewpoint
tt 5cm = Température de l'air 5cm
tt -5cm = Température de l'air -5cm
tt -20cm = Température de l'air -20cm
tt -100cm = Température de l'air -100cm
ff = Vitesse du vent
fx = gusts
dd = Direction du vent
ppp = reduced air pressure
vv = visibility
sd = Ensoleillement
rr = Quantités de précipitations

stations d'obs. à proximité